CZ-4C R/B

Satellite information

Favourite Embed

Satellite Type and Status

ROCKET BODYIN ORBIT

Key statistics

Satellite CZ-4C R/B at a glance.

Uptime

982

Days in orbit

Revolutions

≈ 15.0

Per day

Orbit

SSO

Sun Synchronous Orbit

Inclination

98.1

Latest

Satellite identification and parameters

Extended collection of information and parameters for CZ-4C R/B.

Object identification

Identified? True

Debris? False

Object name: CZ-4C R/B

International designator: 2022-106B

Object number (NORAD): 53699

Object ID (CCSDS): 53699

Country: PEOPLES REPUBLIC OF CHINA (PRC)

Current information (Y/N): Y

RCS size: LARGE

Orbital parameters

Period: 95.987 minutes

Inclination: 98.093 deg

SMA: 6944.41 km

Apoapsis: 650.682 km

Periapsis: 481.868 km

RAAN: 192.9965 deg

Eccentricy: 0.0121547

Argument of periapsis: 55.7069 deg

Mean anomaly: 305.559 deg

Mean motion: 15.00201923 rev/day

Mean motion (dot): 0.00003012 rev/day2

B* drag term: 0.00021113 1/REarth

Two-line elements (TLE)

Creation date: May 11, 2025, 2:40 a.m.

Reference frame: TEME

Reference center: EARTH

Epoch: May 10, 2025, 9:22 p.m. UTC

TLE line 0: 0 CZ-4C R/B

TLE line 1: 1 53699U 22106B 25130.89071850 .00003012 00000-0 21113-3 0 9999

TLE line 2: 2 53699 98.0930 192.9965 0121547 55.7069 305.5590 15.00201923146557

Live tracking on map

Real-time ground track for satellite CZ-4C R/B.

In-orbit conjunctions

A list of the most updated potential collisions computed for object CZ-4C R/B.

Target Orbit TCA Probability of collision Miss distance Type
SOHLA-1 (MAIDO-1) SSO 2024-10-27 17:34:25 0.0001882953 146.0 (m) PAYLOAD

Associated space launch

The Yaogan 33-02 is a Chinese military “remote sensing” satellite of unknown purpose.

CZ-4C R/B was lifted into orbit during the mission ‘Long March 4C | Yaogan 33-02’, on board a Long March 4C space rocket.

The launch took place on Sept. 2, 2022, 11:44 p.m. from Launch Area 4 (SLS-2 / 603).

For more information about the launch, click the button.

Launch to space Long March 4C | Yaogan 33-02
Long March 4C | Yaogan 33-02

Agency: N/A

Status: Launch Successful

Launch date: Sept. 2, 2022, 11:44 p.m. UTC

Rocket: Long March 4C

Launch pad: Launch Area 4 (SLS-2 / 603)

Location: Jiuquan Satellite Launch Center, People's Republic of China

...

Latest news about this satellite

There are no fresh news available about this satellite. Check back as we update our databases every day.


Newsletter sign-up

Weekly statistics, charts and insights to help you stay on top of the space industry.